Waarnemingen

Advertentie
Mijn weer
Kleine Brogel, België (6479): temperatuur & dauwpunt: 18.09.2020 23:00:00 - 24.09.2020 23:00:00 (CEST)Kleine Brogel, België (6479): windsnelheid & windstoten: 18.09.2020 23:00:00 - 24.09.2020 23:00:00 (CEST)Kleine Brogel, België (6479): windrichting: 18.09.2020 23:00:00 - 24.09.2020 23:00:00 (CEST)Kleine Brogel, België (6479): luchtdruk: 18.09.2020 23:00:00 - 24.09.2020 23:00:00 (CEST)Kleine Brogel, België (6479): zicht: 18.09.2020 23:00:00 - 24.09.2020 23:00:00 (CEST)
Datum & Tijd tt [°C] td [°C] ff [km/u] ff [kn] fx [km/u] fx [kn] dd ppp [hPa] vv [km]
24.09.2020 23:00:00 13,3 11,4 7 4 - - ZZO 996,6 20
24.09.2020 22:00:00 13,8 11,2 7 4 14 8 ZZO 997,5 20
24.09.2020 21:00:00 14,6 10,0 4 2 22 12 N 998,2 17
24.09.2020 20:00:00 15,9 8,0 4 2 - - - 998,7 3,2
24.09.2020 19:00:00 16,6 7,7 4 2 25 14 N 999,1 20
24.09.2020 18:00:00 17,7 6,2 14 8 29 16 Z 1000,2 20
24.09.2020 17:00:00 18,3 6,3 14 8 - - ZZW 1000,8 20
24.09.2020 16:00:00 18,6 7,3 18 10 40 21 ZZW 1001,6 20
24.09.2020 15:00:00 18,5 7,6 22 12 47 25 ZZW 1002,2 20
24.09.2020 14:00:00 17,1 7,3 18 10 - - ZZW 1002,7 20
24.09.2020 13:00:00 16,6 7,4 25 14 47 25 ZZW 1003,2 20
24.09.2020 12:00:00 15,7 7,8 25 14 43 23 ZZW 1003,8 20
24.09.2020 11:00:00 14,2 9,2 18 10 - - ZZW 1004,2 20
24.09.2020 10:00:00 13,1 9,5 18 10 40 21 ZZW 1004,3 20
24.09.2020 09:00:00 11,9 9,8 14 8 29 16 ZZW 1004,2 20
24.09.2020 08:00:00 11,0 9,5 14 8 - - ZZW 1003,7 20
24.09.2020 07:00:00 11,1 9,8 14 8 25 14 ZZW 1003,3 20
24.09.2020 06:00:00 11,6 10,2 18 10 29 16 ZZW 1002,8 20
24.09.2020 05:00:00 11,8 10,6 14 8 - - ZW 1002,3 20
24.09.2020 04:00:00 12,6 10,9 18 10 32 18 ZW 1001,6 20
24.09.2020 03:00:00 13,3 12,0 22 12 54 29 WZW 1000,7 20
24.09.2020 02:00:00 15,6 14,6 11 6 - - Z 999,3 20
24.09.2020 01:00:00 15,6 14,6 11 6 32 18 Z 999,7 17
24.09.2020 00:00:00 16,0 14,5 18 10 50 27 ZZW 1000,2 20
23.09.2020 23:00:00 19,0 12,4 7 4 - - ZZO 999,8 20
23.09.2020 22:00:00 19,1 11,6 7 4 18 10 Z 1000,7 20
23.09.2020 21:00:00 19,5 11,6 7 4 14 8 Z 1001,2 20
23.09.2020 20:00:00 19,7 11,3 7 4 - - Z 1001,7 20
23.09.2020 19:00:00 20,7 11,0 14 8 32 18 ZZW 1002,0 20
23.09.2020 18:00:00 21,6 11,3 22 12 43 23 ZW 1002,7 20
23.09.2020 17:00:00 22,2 10,9 29 16 - - ZW 1003,0 20
23.09.2020 16:00:00 - - - - - - - - -
23.09.2020 15:00:00 - - - - - - - - -
23.09.2020 14:00:00 - - - - - - - - -
23.09.2020 13:00:00 - - - - - - - - -
23.09.2020 12:00:00 - - - - - - - - -
23.09.2020 11:00:00 - - - - - - - - -
23.09.2020 10:00:00 16,5 11,1 7 4 14 8 Z 1006,0 18
23.09.2020 09:00:00 14,0 9,2 4 2 11 6 N 1006,0 11
23.09.2020 08:00:00 10,5 8,1 4 2 - - N 1006,2 9
23.09.2020 07:00:00 10,5 8,4 4 2 7 4 N 1006,0 8
23.09.2020 06:00:00 10,9 9,0 4 2 11 6 N 1006,2 7
23.09.2020 05:00:00 11,2 9,0 7 4 - - ZZW 1006,3 8
23.09.2020 04:00:00 12,5 9,1 4 2 11 6 N 1006,5 7
23.09.2020 03:00:00 12,6 9,5 4 2 11 6 N 1006,7 9
23.09.2020 02:00:00 10,3 8,3 4 2 - - - 1006,8 8
23.09.2020 01:00:00 11,3 9,1 7 4 7 4 N 1007,1 9
23.09.2020 00:00:00 11,6 8,8 4 2 4 2 N 1007,2 20
22.09.2020 23:00:00 13,1 9,6 4 2 - - N 1007,6 20
22.09.2020 22:00:00 13,3 9,6 4 2 7 4 N 1007,7 20
22.09.2020 21:00:00 15,6 9,8 4 2 4 2 N 1007,3 20
22.09.2020 20:00:00 18,2 9,3 4 2 - - N 1007,2 18
22.09.2020 19:00:00 21,7 8,8 4 2 11 6 N 1007,3 18
22.09.2020 18:00:00 24,0 8,5 7 4 14 8 WZW 1007,7 18
22.09.2020 17:00:00 25,0 8,6 7 4 - - ZW 1008,2 18
22.09.2020 16:00:00 24,8 8,2 7 4 18 10 N 1009,0 18
22.09.2020 15:00:00 24,9 8,9 4 2 18 10 N 1009,6 18
22.09.2020 14:00:00 23,2 8,5 4 2 - - N 1010,2 15
22.09.2020 13:00:00 22,5 9,5 4 2 11 6 N 1010,8 15
22.09.2020 12:00:00 20,6 11,0 4 2 7 4 N 1011,3 15
22.09.2020 11:00:00 18,1 11,4 4 2 - - N 1012,2 10
22.09.2020 10:00:00 14,4 10,5 4 2 7 4 N 1012,2 8
22.09.2020 09:00:00 10,5 9,4 4 2 7 4 N 1012,2 5
22.09.2020 08:00:00 7,5 7,1 4 2 - - N 1012,2 2,0
22.09.2020 07:00:00 7,4 7,2 4 2 4 2 N 1012,3 1,4
22.09.2020 06:00:00 7,3 6,8 4 2 4 2 N 1012,5 1,5
22.09.2020 05:00:00 8,6 8,1 4 2 - - - 1012,7 0,4
22.09.2020 04:00:00 8,7 8,0 5 3 7 4 WZW 1013,1 6
22.09.2020 03:00:00 9,5 8,4 4 2 4 2 N 1013,2 6
22.09.2020 02:00:00 10,1 8,5 4 2 - - N 1013,6 15
22.09.2020 01:00:00 11,4 8,9 4 2 4 2 N 1014,0 20
22.09.2020 00:00:00 12,0 9,5 4 2 4 2 N 1014,2 20
21.09.2020 23:00:00 12,8 9,2 4 2 - - N 1014,2 20
21.09.2020 22:00:00 14,3 9,8 4 2 4 2 N 1014,2 20
21.09.2020 21:00:00 15,9 10,3 4 2 4 2 N 1014,2 20
21.09.2020 20:00:00 18,5 9,1 0 0 - - N 1014,1 20
21.09.2020 19:00:00 22,1 8,6 4 2 7 4 N 1014,1 20
21.09.2020 18:00:00 24,3 7,5 4 2 14 8 N 1014,1 20
21.09.2020 17:00:00 25,5 6,9 4 2 - - N 1014,3 20
21.09.2020 16:00:00 25,0 6,7 4 2 11 6 N 1014,7 20
21.09.2020 15:00:00 24,9 8,2 4 2 11 6 N 1015,1 20
21.09.2020 14:00:00 23,5 8,8 4 2 - - N 1015,6 20
21.09.2020 13:00:00 22,1 8,3 11 6 7 4 NO 1015,9 20
21.09.2020 12:00:00 20,2 7,7 4 2 7 4 N 1016,2 20
21.09.2020 11:00:00 17,3 8,9 4 2 - - N 1016,6 20
21.09.2020 10:00:00 13,5 8,3 4 2 4 2 N 1016,6 20
21.09.2020 09:00:00 10,4 7,7 4 2 4 2 N 1017,2 20
21.09.2020 08:00:00 6,3 5,4 0 0 - - N 1016,8 20
21.09.2020 07:00:00 6,6 5,9 2 1 4 2 - 1016,3 7
21.09.2020 06:00:00 7,1 6,1 0 0 4 2 N 1016,5 7
21.09.2020 05:00:00 8,1 6,6 4 2 - - N 1016,6 17
21.09.2020 04:00:00 8,9 6,8 4 2 4 2 N 1016,7 20
21.09.2020 03:00:00 7,7 5,6 4 2 4 2 N 1017,0 20
21.09.2020 02:00:00 8,6 6,0 4 2 - - N 1016,8 20
21.09.2020 01:00:00 10,6 6,6 4 2 4 2 N 1017,1 20
21.09.2020 00:00:00 12,0 6,2 4 2 4 2 N 1017,2 20
20.09.2020 23:00:00 13,6 6,2 4 2 - - N 1017,5 20
20.09.2020 22:00:00 15,8 6,1 7 4 14 8 NO 1017,2 20
20.09.2020 21:00:00 17,2 6,6 7 4 11 6 NNO 1017,0 20
20.09.2020 20:00:00 19,1 6,1 4 2 - - N 1016,5 20
20.09.2020 19:00:00 20,7 6,8 4 2 18 10 N 1016,1 20
20.09.2020 18:00:00 22,9 5,6 11 6 22 12 NO 1015,7 20
20.09.2020 17:00:00 24,2 4,5 11 6 - - NO 1015,7 20
20.09.2020 16:00:00 24,3 6,1 11 6 43 23 NO 1015,8 20
20.09.2020 15:00:00 24,3 6,6 11 6 18 10 NO 1016,3 20
20.09.2020 14:00:00 23,4 7,1 11 6 - - N 1016,7 20
20.09.2020 13:00:00 22,1 6,6 7 4 14 8 ONO 1016,8 20
20.09.2020 12:00:00 20,8 6,1 11 6 14 8 ONO 1017,0 20
20.09.2020 11:00:00 18,3 6,7 11 6 - - NNO 1017,2 19
20.09.2020 10:00:00 15,8 6,6 7 4 11 6 NO 1017,1 20
20.09.2020 09:00:00 12,6 6,7 4 2 7 4 N 1016,8 20
20.09.2020 08:00:00 9,1 6,0 4 2 - - N 1016,6 20
20.09.2020 07:00:00 9,1 6,1 4 2 7 4 N 1016,6 20
20.09.2020 06:00:00 8,9 6,0 7 4 7 4 NO 1016,5 20
20.09.2020 05:00:00 10,3 6,5 4 2 - - N 1016,5 20
20.09.2020 04:00:00 10,8 6,5 4 2 4 2 N 1016,3 20
20.09.2020 03:00:00 12,1 6,7 4 2 4 2 N 1016,5 20
20.09.2020 02:00:00 12,8 7,3 4 2 - - N 1016,2 20
20.09.2020 01:00:00 13,6 7,4 4 2 4 2 N 1016,2 20
20.09.2020 00:00:00 14,7 7,6 4 2 7 4 N 1016,5 20
19.09.2020 23:00:00 16,1 7,5 4 2 - - N 1016,3 20
19.09.2020 22:00:00 17,5 8,0 4 2 14 8 N 1016,0 20
19.09.2020 21:00:00 20,0 8,1 11 6 14 8 ONO 1015,7 20
19.09.2020 20:00:00 21,6 8,4 7 4 - - NO 1015,2 20
19.09.2020 19:00:00 23,8 9,6 11 6 18 10 NO 1015,3 20
19.09.2020 18:00:00 25,5 9,6 7 4 18 10 O 1015,6 5
19.09.2020 17:00:00 25,8 9,7 11 6 - - ONO 1015,7 20
19.09.2020 16:00:00 25,3 9,8 7 4 22 12 O 1016,2 20
19.09.2020 15:00:00 25,3 9,9 9 5 22 12 O 1016,7 10
19.09.2020 14:00:00 24,3 9,2 11 6 - - O 1017,1 20
19.09.2020 13:00:00 22,4 8,3 11 6 22 12 ONO 1017,6 20
19.09.2020 12:00:00 19,8 7,4 11 6 18 10 ONO 1017,8 20
19.09.2020 11:00:00 18,4 7,1 11 6 - - ONO 1018,1 20
19.09.2020 10:00:00 15,9 6,7 11 6 18 10 O 1018,1 20
19.09.2020 09:00:00 13,2 6,0 11 6 14 8 ONO 1018,1 20
19.09.2020 08:00:00 10,8 5,7 7 4 - - ONO 1018,2 17
19.09.2020 07:00:00 10,3 5,4 4 2 11 6 N 1018,0 20
19.09.2020 06:00:00 10,2 5,5 4 2 11 6 N 1018,2 20
19.09.2020 05:00:00 10,6 5,7 7 4 - - ONO 1018,5 20
19.09.2020 04:00:00 11,6 5,8 7 4 11 6 ONO 1019,0 20
19.09.2020 03:00:00 11,8 5,8 7 4 11 6 ONO 1019,6 20
19.09.2020 02:00:00 11,8 5,9 7 4 - - ONO 1020,0 20
19.09.2020 01:00:00 12,3 6,0 7 4 11 6 ONO 1020,2 20
19.09.2020 00:00:00 13,1 6,3 7 4 11 6 NO 1020,5 20
18.09.2020 23:00:00 14,3 6,3 7 4 - - NO 1020,6 20

tt = temperatuur
td = dauwpunt
ff = windsnelheid
fx = windstoten
dd = windrichting
ppp = luchtdruk
vv = zicht

Weerstations in de omgeving